Home   Weather   Nashville   Past weeks
Flag for USA

Past Weather in Nashville, Tennessee, USA — Yesterday and Last 2 Weeks

Now
71 °F

Passing clouds.


Feels Like: 75 °F
Forecast: 66 / 48 °F
Wind: 7 mph from South

Location: Nashville International Airport

Current Time: Oct 15, 2019 at 9:56:16 pm

Latest Report: Oct 15, 2019 at 8:53 pm


Visibility: 10 mi

Pressure: 29.88 "Hg

Humidity: 68%

Dew Point: 60 °F

Location of NashvilleLocation

Past Weather in Nashville — Graph

°F

Nashville Temperature Yesterday

Maximum temperature yesterday: 75 °F (at 3:53 pm)
Minimum temperature yesterday: 44 °F (at 5:53 am)
Average temperature yesterday: 58 °F

High & Low Weather Summary for the Past Weeks

 TemperatureHumidityPressure
High97 °F (Oct 2, 1:53 pm)93% (Oct 7, 4:00 am)30.23 "Hg (Oct 7, 4:00 am)
Low38 °F (Oct 13, 6:53 am)25% (Oct 13, 3:53 pm)29.87 "Hg (Oct 15, 5:53 pm)
Average69 °F64%30.07 "Hg
* Reported Sep 30 7:53 pm — Oct 15 7:53 pm, Nashville. Weather by CustomWeather, © 2019

Note: Actual official high and low records may vary slightly from our data, if they occured in-between our weather recording intervals... More about our weather records

Advertising

Nashville Weather History for the Previous 24 Hours

Scroll right to see more
 ConditionsComfort  
Time TempWeatherWind HumidityBarometerVisibility
7:53 pm
Tue, Oct 15
70 °FPartly cloudy.9 mph71%29.88 "Hg10 mi
6:53 pm73 °FPassing clouds.7 mph64%29.88 "Hg10 mi
5:53 pm75 °FPassing clouds.7 mph58%29.87 "Hg10 mi
4:53 pm78 °FPartly sunny.15 mph50%29.88 "Hg10 mi
3:53 pm77 °FBroken clouds.8 mph52%29.90 "Hg10 mi
2:53 pm77 °FBroken clouds.12 mph50%29.93 "Hg10 mi
1:53 pm77 °FBroken clouds.12 mph48%29.95 "Hg10 mi
12:53 pm77 °FPartly sunny.7 mph48%29.99 "Hg10 mi
11:53 am74 °FBroken clouds.7 mph52%30.01 "Hg10 mi
10:53 am72 °FBroken clouds.6 mph52%30.03 "Hg10 mi
9:53 am68 °FBroken clouds.5 mph55%30.05 "Hg10 mi
8:53 am65 °FBroken clouds.5 mph61%30.05 "Hg10 mi
7:53 am58 °FScattered clouds.3 mph75%30.05 "Hg10 mi
7:05 am57 °FBroken clouds.6 mph78%30.06 "Hg10 mi
6:53 am58 °FPartly sunny.5 mph75%30.06 "Hg10 mi
5:53 am57 °FOvercast.No wind78%30.06 "Hg10 mi
4:53 am55 °FMostly cloudy.6 mph83%30.06 "Hg10 mi
3:53 am56 °FPassing clouds.No wind77%30.07 "Hg10 mi
2:53 am53 °FPartly cloudy.No wind83%30.07 "Hg10 mi
1:53 am53 °FClear.3 mph80%30.08 "Hg10 mi
12:53 am55 °FClear.No wind77%30.07 "Hg10 mi
11:53 pm
Mon, Oct 14
55 °FPassing clouds.3 mph77%30.08 "Hg10 mi
10:53 pm58 °FPassing clouds.No wind70%30.08 "Hg10 mi
9:53 pm57 °FPassing clouds.3 mph74%30.08 "Hg10 mi
Weather by CustomWeather, © 2019

See weather overview